ONDOSAT-OWL-4

operational
NORAD ID: 62405 Int'l Des: 2024-247 Owner: ONDO Country: MN
LEOCIRCULAR

About ONDOSAT-OWL-4

Description loading...

Live Position

Loading 3D Globe...

Upcoming Passes

Altitude History

Altitude vs Time

uPlot chart will show altitude changes over time

Two-Line Element Set

1 62405U 24247AE 25315.27205724 .00046040 00000-0 12245-2 0 9991
2 62405 44.9828 25.7234 0009208 333.5950 26.4467 15.37534734 49244
Epoch: Nov 11, 2025 • Age: 13 hours

Current Status

Altitude 458.9 km
Velocity 7.64 km/s
Sub-Earth Point 2.23°N, 147.3°W
Launch Date Dec 21, 2024
Age 0.8 years
Type other

Technical Details

Classification Payload
Mass 0.25 kg
Dry Mass 0.25 kg
Total Mass 0.25 kg
Length 0.05 m
Diameter 0.05 m
Span 0.05 m
Shape Box
Manufacturer ONDO
Bus Type Cubesat 0.5U
Phase Status In Orbit
Owner/State ONDO/MN

Large Constellations

Loading constellations...